SUR4070 SPZO-SPJC

Flight info

Callsign SUR4070
Flight time 1h 9m
Altitude 30000
Route GAXU1B GAXUN UT321 UDENI UT332 PEROV PEROV6
Aircraft E175/L-S/1200

Departure

Time 2026-04-20 16:33
Airport Alejandro Velasco Astete International Airport (SPZO)

Arrival

Time 2026-04-20 17:42
Airport Jorge Chávez International Airport (SPJC)
Time Latitude Longitude Altitude Speed Heading
2026-04-20 16:23 -13.53730 -71.94494 10838 ft 0 kts 260°
2026-04-20 16:25 -13.53712 -71.94497 10837 ft 5 kts
2026-04-20 16:25 -13.53661 -71.94500 10836 ft 7 kts 323°
2026-04-20 16:25 -13.53647 -71.94540 10838 ft 4 kts 276°
2026-04-20 16:26 -13.53641 -71.94595 10841 ft 13 kts 275°
2026-04-20 16:26 -13.53632 -71.94687 10846 ft 10 kts 273°
2026-04-20 16:26 -13.53631 -71.94743 10850 ft 5 kts 271°
2026-04-20 16:26 -13.53630 -71.94778 10852 ft 8 kts 273°
2026-04-20 16:27 -13.53624 -71.94846 10856 ft 8 kts 274°
2026-04-20 16:27 -13.53619 -71.94907 10859 ft 9 kts 277°
2026-04-20 16:27 -13.53605 -71.94989 10863 ft 11 kts 278°
2026-04-20 16:27 -13.53596 -71.95039 10867 ft 3 kts 279°
2026-04-20 16:28 -13.53593 -71.95060 10869 ft 5 kts 278°
2026-04-20 16:28 -13.53588 -71.95110 10873 ft 7 kts 276°
2026-04-20 16:28 -13.53584 -71.95179 10879 ft 13 kts 274°
2026-04-20 16:28 -13.53576 -71.95255 10884 ft 11 kts 274°
2026-04-20 16:29 -13.53566 -71.95342 10889 ft 10 kts 280°
2026-04-20 16:29 -13.53555 -71.95399 10892 ft 8 kts 282°
2026-04-20 16:29 -13.53516 -71.95444 10893 ft 8 kts 341°
2026-04-20 16:29 -13.53504 -71.95445 10892 ft 0 kts 359°
2026-04-20 16:30 -13.53473 -71.95439 10891 ft 8 kts 19°
2026-04-20 16:30 -13.53418 -71.95397 10885 ft 1 kts 86°
2026-04-20 16:31 -13.53418 -71.95391 10885 ft 10 kts 88°
2026-04-20 16:31 -13.53450 -71.95056 10865 ft 80 kts 95°
2026-04-20 16:32 -13.53528 -71.94276 10826 ft 137 kts 97°
2026-04-20 16:32 -13.53647 -71.93152 10849 ft 172 kts 98°
2026-04-20 16:32 -13.53847 -71.91906 11122 ft 186 kts 103°
2026-04-20 16:32 -13.54138 -71.90546 11319 ft 205 kts 99°
2026-04-20 16:33 -13.54228 -71.89071 11651 ft 209 kts 88°
2026-04-20 16:33 -13.54464 -71.87588 12046 ft 217 kts 123°
2026-04-20 16:33 -13.55299 -71.86275 12449 ft 227 kts 116°
2026-04-20 16:33 -13.55905 -71.84721 12798 ft 241 kts 110°
2026-04-20 16:34 -13.56492 -71.83067 13151 ft 255 kts 111°
2026-04-20 16:34 -13.57161 -71.81308 13508 ft 269 kts 113°
2026-04-20 16:34 -13.57754 -71.79430 13825 ft 284 kts 96°
2026-04-20 16:34 -13.57567 -71.77399 14170 ft 296 kts 71°
2026-04-20 16:35 -13.56587 -71.75507 14527 ft 305 kts 60°
2026-04-20 16:35 -13.55551 -71.73594 14852 ft 307 kts 64°
2026-04-20 16:35 -13.54584 -71.71646 15152 ft 306 kts 65°
2026-04-20 16:35 -13.53639 -71.69661 15466 ft 308 kts 65°
2026-04-20 16:36 -13.52670 -71.67705 15751 ft 310 kts 57°
2026-04-20 16:36 -13.51197 -71.66116 16025 ft 312 kts 34°
2026-04-20 16:36 -13.49203 -71.65236 16328 ft 312 kts 11°
2026-04-20 16:36 -13.47006 -71.65239 16627 ft 315 kts 348°
2026-04-20 16:37 -13.44999 -71.66115 16916 ft 317 kts 326°
2026-04-20 16:37 -13.43468 -71.67722 17180 ft 318 kts 305°
2026-04-20 16:37 -13.42278 -71.69657 17492 ft 320 kts 305°
2026-04-20 16:37 -13.40830 -71.71377 17802 ft 320 kts 321°
2026-04-20 16:38 -13.39051 -71.72768 18108 ft 320 kts 327°
2026-04-20 16:38 -13.37173 -71.74040 18394 ft 322 kts 324°
2026-04-20 16:38 -13.35622 -71.75683 18655 ft 325 kts 303°
2026-04-20 16:38 -13.34773 -71.77834 18937 ft 328 kts 282°
2026-04-20 16:39 -13.34418 -71.80157 19262 ft 329 kts 283°
2026-04-20 16:39 -13.33936 -71.82455 19566 ft 331 kts 285°
2026-04-20 16:39 -13.33407 -71.84741 19854 ft 330 kts 285°
2026-04-20 16:39 -13.32852 -71.87035 20137 ft 332 kts 286°
2026-04-20 16:40 -13.32281 -71.89359 20433 ft 334 kts 286°
2026-04-20 16:40 -13.31714 -71.91640 20731 ft 335 kts 286°
2026-04-20 16:40 -13.31137 -71.93967 21025 ft 336 kts 286°
2026-04-20 16:40 -13.30561 -71.96287 21297 ft 336 kts 287°
2026-04-20 16:41 -13.29981 -71.98617 21606 ft 338 kts 286°
2026-04-20 16:41 -13.29397 -72.00961 21888 ft 337 kts 286°
2026-04-20 16:41 -13.28816 -72.03292 22140 ft 342 kts 287°
2026-04-20 16:41 -13.28220 -72.05676 22403 ft 346 kts 286°
2026-04-20 16:42 -13.27623 -72.08072 22656 ft 350 kts 286°
2026-04-20 16:42 -13.27018 -72.10491 22935 ft 353 kts 286°
2026-04-20 16:42 -13.26404 -72.12955 23218 ft 356 kts 286°
2026-04-20 16:42 -13.25788 -72.15420 23502 ft 359 kts 286°
2026-04-20 16:43 -13.25166 -72.17912 23805 ft 361 kts 286°
2026-04-20 16:43 -13.24541 -72.20414 24119 ft 364 kts 286°
2026-04-20 16:43 -13.23912 -72.22929 24433 ft 365 kts 286°
2026-04-20 16:43 -13.23283 -72.25436 24742 ft 367 kts 286°
2026-04-20 16:44 -13.22651 -72.27972 25057 ft 369 kts 286°
2026-04-20 16:44 -13.22026 -72.30469 25363 ft 370 kts 286°
2026-04-20 16:44 -13.21410 -72.32935 25668 ft 371 kts 286°
2026-04-20 16:44 -13.20772 -72.35480 25979 ft 372 kts 286°
2026-04-20 16:45 -13.20151 -72.37961 26281 ft 372 kts 286°
2026-04-20 16:45 -13.19518 -72.40493 26592 ft 373 kts 286°
2026-04-20 16:45 -13.18879 -72.43040 26902 ft 373 kts 286°
2026-04-20 16:45 -13.18244 -72.45573 27213 ft 373 kts 286°
2026-04-20 16:46 -13.17604 -72.48123 27523 ft 373 kts 286°
2026-04-20 16:46 -13.16955 -72.50703 27835 ft 373 kts 286°
2026-04-20 16:46 -13.16315 -72.53253 28145 ft 372 kts 286°
2026-04-20 16:46 -13.15673 -72.55816 28449 ft 371 kts 286°
2026-04-20 16:47 -13.15034 -72.58362 28763 ft 371 kts 286°
2026-04-20 16:47 -13.14385 -72.60937 29087 ft 370 kts 286°
2026-04-20 16:47 -13.13749 -72.63470 29393 ft 369 kts 286°
2026-04-20 16:47 -13.13105 -72.66007 29713 ft 367 kts 287°
2026-04-20 16:48 -13.12467 -72.68549 30030 ft 366 kts 287°
2026-04-20 16:48 -13.11834 -72.71056 30345 ft 364 kts 287°
2026-04-20 16:48 -13.11200 -72.73567 30600 ft 365 kts 287°
2026-04-20 16:48 -13.10566 -72.76083 30618 ft 372 kts 287°
2026-04-20 16:49 -13.09325 -72.81277 30620 ft 387 kts 284°
2026-04-20 16:49 -13.08101 -72.86736 30610 ft 401 kts 285°
2026-04-20 16:50 -13.06838 -72.92336 30622 ft 412 kts 285°
2026-04-20 16:50 -13.05519 -72.98158 30623 ft 424 kts 284°
2026-04-20 16:51 -13.04180 -73.04075 30621 ft 434 kts 284°
2026-04-20 16:51 -13.02793 -73.10188 30626 ft 443 kts 284°
2026-04-20 16:52 -13.01396 -73.16375 30654 ft 450 kts 284°
2026-04-20 16:52 -12.99976 -73.22643 30670 ft 457 kts 284°
2026-04-20 16:53 -12.98540 -73.28976 30661 ft 455 kts 285°
2026-04-20 16:53 -12.97112 -73.35268 30599 ft 455 kts 284°
2026-04-20 16:54 -12.95679 -73.41574 30605 ft 455 kts 284°
2026-04-20 16:54 -12.94249 -73.47858 30557 ft 454 kts 284°
2026-04-20 16:55 -12.92814 -73.54156 30516 ft 453 kts 284°
2026-04-20 16:55 -12.91396 -73.60377 30561 ft 453 kts 285°
2026-04-20 16:56 -12.89981 -73.66578 30554 ft 454 kts 285°
2026-04-20 16:56 -12.88547 -73.72851 30560 ft 453 kts 285°
2026-04-20 16:57 -12.87112 -73.79121 30587 ft 453 kts 285°
2026-04-20 16:57 -12.85672 -73.85405 30569 ft 452 kts 285°
2026-04-20 16:58 -12.84230 -73.91691 30585 ft 452 kts 285°
2026-04-20 16:58 -12.82794 -73.97947 30627 ft 452 kts 285°
2026-04-20 16:59 -12.81354 -74.04211 30666 ft 452 kts 285°
2026-04-20 16:59 -12.79914 -74.10465 30697 ft 451 kts 285°
2026-04-20 17:00 -12.77752 -74.19846 30759 ft 451 kts 285°
2026-04-20 17:01 -12.76318 -74.26057 30793 ft 451 kts 285°
2026-04-20 17:01 -12.74873 -74.32307 30783 ft 451 kts 285°
2026-04-20 17:02 -12.73426 -74.38564 30802 ft 451 kts 285°
2026-04-20 17:02 -12.71983 -74.44793 30782 ft 451 kts 285°
2026-04-20 17:03 -12.70539 -74.51022 30794 ft 450 kts 285°
2026-04-20 17:03 -12.69091 -74.57258 30792 ft 452 kts 285°
2026-04-20 17:04 -12.67634 -74.63530 30837 ft 450 kts 285°
2026-04-20 17:04 -12.66188 -74.69746 30900 ft 449 kts 285°
2026-04-20 17:05 -12.64744 -74.75943 30937 ft 450 kts 285°
2026-04-20 17:05 -12.63290 -74.82182 30943 ft 449 kts 285°
2026-04-20 17:06 -12.61850 -74.88351 30973 ft 449 kts 285°
2026-04-20 17:06 -12.61121 -74.91468 30771 ft 450 kts 285°
2026-04-20 17:06 -12.60391 -74.94593 30538 ft 448 kts 285°
2026-04-20 17:06 -12.59676 -74.97652 30311 ft 446 kts 285°
2026-04-20 17:07 -12.58958 -75.00716 30081 ft 445 kts 285°
2026-04-20 17:07 -12.58238 -75.03793 29849 ft 442 kts 285°
2026-04-20 17:07 -12.57525 -75.06835 29618 ft 441 kts 285°
2026-04-20 17:07 -12.56823 -75.09899 29387 ft 440 kts 284°
2026-04-20 17:08 -12.56123 -75.12910 29141 ft 439 kts 285°
2026-04-20 17:08 -12.55416 -75.15929 28799 ft 437 kts 284°
2026-04-20 17:08 -12.54710 -75.18936 28472 ft 434 kts 284°
2026-04-20 17:08 -12.54003 -75.21940 28149 ft 432 kts 284°
2026-04-20 17:09 -12.53305 -75.24912 27830 ft 430 kts 285°
2026-04-20 17:09 -12.52599 -75.27909 27505 ft 429 kts 284°
2026-04-20 17:09 -12.51902 -75.30829 27187 ft 425 kts 285°
2026-04-20 17:09 -12.51184 -75.33772 26860 ft 424 kts 285°
2026-04-20 17:10 -12.50497 -75.36677 26539 ft 422 kts 285°
2026-04-20 17:10 -12.49812 -75.39579 26217 ft 420 kts 285°
2026-04-20 17:10 -12.49132 -75.42460 25952 ft 416 kts 285°
2026-04-20 17:10 -12.48455 -75.45324 26117 ft 416 kts 285°
2026-04-20 17:11 -12.47776 -75.48214 26334 ft 418 kts 285°
2026-04-20 17:11 -12.47094 -75.51102 26546 ft 419 kts 285°
2026-04-20 17:11 -12.46415 -75.53976 26750 ft 420 kts 285°
2026-04-20 17:11 -12.45725 -75.56895 26912 ft 423 kts 285°
2026-04-20 17:12 -12.45032 -75.59830 26935 ft 426 kts 285°
2026-04-20 17:12 -12.44340 -75.62756 26928 ft 425 kts 285°
2026-04-20 17:12 -12.43639 -75.65714 26929 ft 423 kts 285°
2026-04-20 17:12 -12.42944 -75.68652 26926 ft 424 kts 285°
2026-04-20 17:13 -12.42248 -75.71589 26919 ft 423 kts 285°
2026-04-20 17:13 -12.41557 -75.74503 26920 ft 423 kts 285°
2026-04-20 17:13 -12.40869 -75.77404 26921 ft 423 kts 285°
2026-04-20 17:13 -12.40168 -75.80359 26921 ft 423 kts 285°
2026-04-20 17:14 -12.39482 -75.83244 26915 ft 423 kts 285°
2026-04-20 17:14 -12.38786 -75.86175 26929 ft 424 kts 285°
2026-04-20 17:14 -12.38092 -75.89101 26916 ft 422 kts 285°
2026-04-20 17:14 -12.37396 -75.92028 26922 ft 422 kts 285°
2026-04-20 17:15 -12.36703 -75.94939 26934 ft 423 kts 285°
2026-04-20 17:15 -12.36008 -75.97858 26955 ft 424 kts 285°
2026-04-20 17:15 -12.35340 -76.00665 26962 ft 424 kts 285°
2026-04-20 17:15 -12.34641 -76.03599 26958 ft 423 kts 285°
2026-04-20 17:16 -12.33994 -76.06560 26934 ft 424 kts 284°
2026-04-20 17:16 -12.33368 -76.09482 26889 ft 423 kts 284°
2026-04-20 17:16 -12.32730 -76.12430 26847 ft 422 kts 284°
2026-04-20 17:16 -12.32098 -76.15363 26833 ft 423 kts 284°
2026-04-20 17:17 -12.31467 -76.18274 26809 ft 423 kts 284°
2026-04-20 17:17 -12.30829 -76.21227 26812 ft 424 kts 284°
2026-04-20 17:17 -12.30198 -76.24146 26605 ft 424 kts 284°
2026-04-20 17:17 -12.29563 -76.27102 26413 ft 422 kts 284°
2026-04-20 17:18 -12.28939 -76.30008 26224 ft 422 kts 284°
2026-04-20 17:18 -12.28311 -76.32930 26031 ft 418 kts 284°
2026-04-20 17:18 -12.27686 -76.35835 25769 ft 414 kts 284°
2026-04-20 17:18 -12.27082 -76.38634 25457 ft 397 kts 284°
2026-04-20 17:19 -12.26512 -76.41317 25135 ft 379 kts 284°
2026-04-20 17:19 -12.25963 -76.43906 24811 ft 363 kts 284°
2026-04-20 17:19 -12.25441 -76.46352 24497 ft 349 kts 284°
2026-04-20 17:19 -12.24927 -76.48738 24161 ft 337 kts 285°
2026-04-20 17:20 -12.24428 -76.51045 23648 ft 332 kts 285°
2026-04-20 17:20 -12.23927 -76.53343 23149 ft 326 kts 285°
2026-04-20 17:20 -12.23443 -76.55576 22653 ft 321 kts 285°
2026-04-20 17:20 -12.22970 -76.57758 22181 ft 316 kts 285°
2026-04-20 17:21 -12.22494 -76.59955 21699 ft 312 kts 285°
2026-04-20 17:21 -12.22029 -76.62100 21229 ft 308 kts 285°
2026-04-20 17:21 -12.21568 -76.64222 20764 ft 305 kts 285°
2026-04-20 17:21 -12.21112 -76.66305 20307 ft 302 kts 285°
2026-04-20 17:22 -12.20658 -76.68385 19863 ft 300 kts 285°
2026-04-20 17:22 -12.20200 -76.70476 19394 ft 298 kts 285°
2026-04-20 17:22 -12.19753 -76.72520 18912 ft 297 kts 285°
2026-04-20 17:22 -12.19303 -76.74570 18470 ft 295 kts 285°
2026-04-20 17:23 -12.18861 -76.76585 18066 ft 293 kts 285°
2026-04-20 17:23 -12.18413 -76.78626 17577 ft 290 kts 285°
2026-04-20 17:23 -12.17979 -76.80606 17127 ft 288 kts 285°
2026-04-20 17:23 -12.17544 -76.82586 16661 ft 285 kts 285°
2026-04-20 17:24 -12.17110 -76.84558 16238 ft 283 kts 285°
2026-04-20 17:24 -12.16679 -76.86521 15783 ft 281 kts 285°
2026-04-20 17:24 -12.16256 -76.88445 15392 ft 279 kts 285°
2026-04-20 17:24 -12.15833 -76.90367 14915 ft 277 kts 285°
2026-04-20 17:25 -12.15411 -76.92284 14390 ft 275 kts 285°
2026-04-20 17:25 -12.15002 -76.94151 13943 ft 273 kts 285°
2026-04-20 17:25 -12.14589 -76.96035 13506 ft 272 kts 285°
2026-04-20 17:25 -12.14178 -76.97912 13053 ft 270 kts 285°
2026-04-20 17:26 -12.13769 -76.99786 12564 ft 269 kts 285°
2026-04-20 17:26 -12.13360 -77.01646 12096 ft 268 kts 284°
2026-04-20 17:26 -12.12960 -77.03475 11649 ft 267 kts 284°
2026-04-20 17:26 -12.12555 -77.05321 11183 ft 266 kts 284°
2026-04-20 17:27 -12.12154 -77.07149 10715 ft 266 kts 284°
2026-04-20 17:27 -12.11751 -77.08990 10254 ft 265 kts 284°
2026-04-20 17:27 -12.11341 -77.10857 9781 ft 264 kts 284°
2026-04-20 17:27 -12.10940 -77.12682 9313 ft 264 kts 284°
2026-04-20 17:28 -12.10534 -77.14532 8834 ft 263 kts 284°
2026-04-20 17:28 -12.10136 -77.16342 8370 ft 263 kts 284°
2026-04-20 17:28 -12.09679 -77.18146 7906 ft 261 kts 298°
2026-04-20 17:28 -12.08445 -77.19418 7539 ft 251 kts 334°
2026-04-20 17:29 -12.06899 -77.20232 7103 ft 250 kts 334°
2026-04-20 17:29 -12.05339 -77.21053 6637 ft 251 kts 334°
2026-04-20 17:29 -12.03773 -77.21849 6169 ft 251 kts 335°
2026-04-20 17:29 -12.02201 -77.22638 5696 ft 251 kts 335°
2026-04-20 17:30 -12.00630 -77.23443 5220 ft 251 kts 334°
2026-04-20 17:30 -11.99075 -77.24258 4750 ft 251 kts 334°
2026-04-20 17:30 -11.97503 -77.25079 4275 ft 252 kts 334°
2026-04-20 17:30 -11.95924 -77.25902 4014 ft 241 kts 334°
2026-04-20 17:31 -11.94415 -77.26689 3972 ft 222 kts 334°
2026-04-20 17:31 -11.93004 -77.27429 3962 ft 203 kts 334°
2026-04-20 17:31 -11.91701 -77.28095 3975 ft 181 kts 336°
2026-04-20 17:31 -11.90577 -77.28658 3994 ft 163 kts 336°
2026-04-20 17:32 -11.89542 -77.29182 3990 ft 163 kts 336°
2026-04-20 17:32 -11.88472 -77.29719 4005 ft 167 kts 336°
2026-04-20 17:32 -11.87399 -77.30251 3987 ft 167 kts 336°
2026-04-20 17:32 -11.86323 -77.30782 3760 ft 171 kts 336°
2026-04-20 17:33 -11.85233 -77.31255 3546 ft 168 kts 355°
2026-04-20 17:33 -11.84150 -77.30978 3394 ft 162 kts 45°
2026-04-20 17:33 -11.83653 -77.29974 3277 ft 161 kts 92°
2026-04-20 17:33 -11.83967 -77.28912 3104 ft 162 kts 127°
2026-04-20 17:34 -11.84755 -77.28088 2802 ft 164 kts 143°
2026-04-20 17:34 -11.85637 -77.27309 2446 ft 168 kts 134°
2026-04-20 17:34 -11.86194 -77.26259 2060 ft 174 kts 102°
2026-04-20 17:34 -11.86016 -77.25037 1672 ft 181 kts 65°
2026-04-20 17:35 -11.85147 -77.24136 1509 ft 173 kts 38°
2026-04-20 17:35 -11.84203 -77.23470 1460 ft 157 kts 38°
2026-04-20 17:35 -11.83319 -77.22850 1474 ft 151 kts 39°
2026-04-20 17:35 -11.82446 -77.22235 1505 ft 153 kts 38°
2026-04-20 17:36 -11.81615 -77.21551 1526 ft 154 kts 63°
2026-04-20 17:36 -11.81494 -77.20541 1582 ft 148 kts 125°
2026-04-20 17:36 -11.82367 -77.20191 1636 ft 146 kts 194°
2026-04-20 17:36 -11.83366 -77.20184 1727 ft 145 kts 168°
2026-04-20 17:37 -11.84342 -77.19922 1744 ft 143 kts 175°
2026-04-20 17:37 -11.85345 -77.19710 1764 ft 141 kts 163°
2026-04-20 17:37 -11.86311 -77.19351 1640 ft 145 kts 158°
2026-04-20 17:37 -11.87228 -77.18875 1556 ft 145 kts 153°
2026-04-20 17:38 -11.88126 -77.18355 1525 ft 145 kts 154°
2026-04-20 17:38 -11.89013 -77.17847 1538 ft 145 kts 154°
2026-04-20 17:38 -11.89932 -77.17393 1473 ft 147 kts 158°
2026-04-20 17:38 -11.90861 -77.16959 1432 ft 147 kts 157°
2026-04-20 17:39 -11.91792 -77.16503 1426 ft 147 kts 156°
2026-04-20 17:39 -11.92716 -77.16043 1389 ft 147 kts 156°
2026-04-20 17:39 -11.93654 -77.15578 1275 ft 147 kts 158°
2026-04-20 17:39 -11.94577 -77.15149 1103 ft 147 kts 158°
2026-04-20 17:40 -11.95493 -77.14716 914 ft 145 kts 158°
2026-04-20 17:40 -11.96398 -77.14272 734 ft 144 kts 158°
2026-04-20 17:40 -11.97296 -77.13830 746 ft 139 kts 156°
2026-04-20 17:40 -11.98189 -77.13405 589 ft 143 kts 159°
2026-04-20 17:41 -11.99076 -77.12959 420 ft 141 kts 157°
2026-04-20 17:41 -11.99973 -77.12520 252 ft 140 kts 158°
2026-04-20 17:41 -12.00850 -77.12086 143 ft 138 kts 158°
2026-04-20 17:41 -12.01595 -77.11743 132 ft 84 kts 153°
2026-04-20 17:42 -12.01958 -77.11534 132 ft 47 kts 150°
2026-04-20 17:42 -12.02161 -77.11414 132 ft 25 kts 134°
2026-04-20 17:42 -12.02223 -77.11350 132 ft 0 kts 133°
2026-04-20 17:43 -12.02253 -77.11316 132 ft 9 kts 131°
2026-04-20 17:43 -12.02292 -77.11267 132 ft 8 kts 127°
2026-04-20 17:43 -12.02323 -77.11225 132 ft 7 kts 124°
2026-04-20 17:43 -12.02348 -77.11182 132 ft 6 kts 111°
2026-04-20 17:44 -12.02339 -77.11126 132 ft 10 kts 60°
2026-04-20 17:44 -12.02282 -77.11092 132 ft 8 kts 14°
2026-04-20 17:44 -12.02228 -77.11086 132 ft 7 kts 356°
2026-04-20 17:44 -12.02176 -77.11096 132 ft 8 kts 346°
2026-04-20 17:45 -12.02124 -77.11100 132 ft 7 kts
2026-04-20 17:45 -12.02100 -77.11097 132 ft 0 kts